• In Slovakia
  • List of Countries
  • For 7 days
  • Water Temperature
  • Satellite Maps
  • Weather Map
  • Weather Widgets
  • user-avatar
    Login

    Hourly Weather Eisenstadt

    Today, 20 January, Saturday

    Time Temperature Precipitation Wind Pressure Humidity
    00:00 0°C° 0 mm 1 mps 719 mmHg 86%
    01:00 0°C° 0 mm 1 mps 719 mmHg 88%
    02:00 0°C° 0 mm 1 mps 719 mmHg 88%
    03:00 0°C° 0 mm 1 mps 719 mmHg 89%
    04:00 0°C° 0 mm 1 mps 719 mmHg 89%
    05:00 0°C° 0 mm 1 mps 719 mmHg 88%
    06:00 0°C° 0 mm 1 mps 719 mmHg 87%
    07:00 -2°C° 0 mm 2 mps 719 mmHg 85%
    08:00 -1°C° 0 mm 2 mps 719 mmHg 80%
    09:00 +1°C° 0 mm 2 mps 719 mmHg 75%
    10:00 +2°C° 0 mm 2 mps 719 mmHg 70%
    11:00 +3°C° 0 mm 2 mps 719 mmHg 66%
    12:00 +3°C° 0 mm 2 mps 718 mmHg 62%
    13:00 +4°C° 0 mm 2 mps 718 mmHg 59%
    14:00 +3°C° 0 mm 2 mps 718 mmHg 64%
    15:00 +3°C° 0 mm 2 mps 717 mmHg 69%
    16:00 +3°C° 0 mm 1 mps 717 mmHg 74%
    17:00 +1°C° 0 mm 2 mps 716 mmHg 77%
    18:00 -1°C° 0 mm 2 mps 715 mmHg 81%
    19:00 -2°C° 0 mm 2 mps 715 mmHg 85%
    20:00 -2°C° 0 mm 3 mps 714 mmHg 85%
    21:00 -2°C° 0 mm 3 mps 713 mmHg 85%
    22:00 -2°C° 0 mm 3 mps 713 mmHg 85%
    23:00 -2°C° 0 mm 4 mps 712 mmHg 84%

    Tomorrow, 21 January, Sunday

    Time Temperature Precipitation Wind Pressure Humidity
    00:00 -2°C° 0 mm 4 mps 712 mmHg 84%
    01:00 -2°C° 0 mm 4 mps 711 mmHg 83%
    02:00 -2°C° 0.1 mm 3 mps 711 mmHg 85%
    03:00 -2°C° 0.1 mm 2 mps 711 mmHg 86%
    04:00 -2°C° 0.1 mm 2 mps 711 mmHg 88%
    05:00 0°C° 0 mm 1 mps 711 mmHg 88%
    06:00 -1°C° 0 mm 1 mps 711 mmHg 88%
    07:00 -1°C° 0 mm 1 mps 711 mmHg 88%
    08:00 0°C° 0 mm 1 mps 712 mmHg 85%
    09:00 -1°C° 0 mm 2 mps 712 mmHg 81%
    10:00 +1°C° 0 mm 2 mps 713 mmHg 78%
    11:00 +2°C° 0.2 mm 2 mps 713 mmHg 77%
    12:00 +1°C° 0.2 mm 3 mps 713 mmHg 77%
    13:00 +2°C° 0.2 mm 3 mps 714 mmHg 76%
    14:00 0°C° 0.2 mm 4 mps 714 mmHg 78%
    15:00 0°C° 0.2 mm 4 mps 715 mmHg 80%
    16:00 -1°C° 0.2 mm 4 mps 716 mmHg 82%
    17:00 -1°C° 0.2 mm 5 mps 717 mmHg 82%
    18:00 -2°C° 0.2 mm 5 mps 718 mmHg 82%
    19:00 -3°C° 0.2 mm 6 mps 719 mmHg 83%
    20:00 -3°C° 0 mm 6 mps 720 mmHg 82%
    21:00 -4°C° 0 mm 6 mps 720 mmHg 81%
    22:00 -4°C° 0 mm 6 mps 721 mmHg 80%
    23:00 -5°C° 0 mm 5 mps 721 mmHg 80%

    Day after tomorrow, 22 January, Monday

    Time Temperature Precipitation Wind Pressure Humidity
    00:00 -5°C° 0 mm 5 mps 721 mmHg 81%
    01:00 -5°C° 0 mm 4 mps 722 mmHg 81%
    02:00 -5°C° 0 mm 3 mps 721 mmHg 82%
    03:00 -5°C° 0 mm 3 mps 721 mmHg 82%
    04:00 -5°C° 0 mm 2 mps 721 mmHg 83%
    05:00 -4°C° 0 mm 2 mps 721 mmHg 81%
    06:00 -4°C° 0 mm 2 mps 721 mmHg 80%
    07:00 -1°C° 0 mm 1 mps 720 mmHg 79%
    08:00 -1°C° 0.1 mm 1 mps 721 mmHg 78%
    09:00 0°C° 0.1 mm 1 mps 721 mmHg 76%
    10:00 0°C° 0.1 mm 1 mps 721 mmHg 75%
    11:00 +1°C° 0 mm 1 mps 721 mmHg 73%
    12:00 +1°C° 0 mm 1 mps 721 mmHg 71%
    13:00 +2°C° 0 mm 1 mps 720 mmHg 69%
    14:00 +2°C° 0 mm 1 mps 720 mmHg 72%
    15:00 +1°C° 0 mm 1 mps 720 mmHg 75%
    16:00 +1°C° 0 mm 1 mps 720 mmHg 78%
    17:00 +1°C° 0.1 mm 1 mps 721 mmHg 80%
    18:00 0°C° 0.1 mm 1 mps 721 mmHg 83%
    19:00 0°C° 0.1 mm 1 mps 722 mmHg 85%
    20:00 0°C° 0.2 mm 1 mps 722 mmHg 86%
    21:00 0°C° 0.2 mm 1 mps 722 mmHg 86%
    22:00 0°C° 0.2 mm 1 mps 722 mmHg 86%
    23:00 0°C° 0.2 mm 1 mps 723 mmHg 87%

    23 January, Tuesday

    Time Temperature Precipitation Wind Pressure Humidity
    00:00 0°C° 0.2 mm 1 mps 723 mmHg 88%
    01:00 0°C° 0.2 mm 1 mps 723 mmHg 89%
    02:00 0°C° 0.1 mm 1 mps 723 mmHg 89%
    03:00 +1°C° 0.1 mm 1 mps 723 mmHg 89%
    04:00 +1°C° 0.1 mm 1 mps 723 mmHg 90%
    05:00 +1°C° 0.1 mm 1 mps 724 mmHg 90%
    06:00 +1°C° 0.1 mm 1 mps 724 mmHg 91%
    07:00 +1°C° 0.1 mm 1 mps 725 mmHg 91%
    08:00 +1°C° 0.1 mm 1 mps 725 mmHg 90%
    09:00 +2°C° 0.1 mm 1 mps 726 mmHg 89%
    10:00 +2°C° 0.1 mm 1 mps 727 mmHg 88%
    11:00 +2°C° 0.1 mm 1 mps 727 mmHg 87%
    12:00 +3°C° 0.1 mm 1 mps 728 mmHg 86%
    13:00 +3°C° 0.1 mm 1 mps 728 mmHg 85%
    14:00 +3°C° 0 mm 1 mps 728 mmHg 87%
    15:00 +2°C° 0 mm 0 mps 729 mmHg 89%
    16:00 +2°C° 0 mm 0 mps 729 mmHg 91%
    17:00 +1°C° 0 mm 0 mps 730 mmHg 92%
    18:00 +1°C° 0 mm 0 mps 730 mmHg 92%
    19:00 0°C° 0 mm 0 mps 731 mmHg 93%
    20:00 0°C° 0 mm 0 mps 731 mmHg 93%
    21:00 +1°C° 0 mm 1 mps 731 mmHg 93%
    22:00 0°C° 0 mm 1 mps 732 mmHg 93%
    23:00 0°C° 0 mm 1 mps 732 mmHg 93%

    24 January, Wednesday

    Time Temperature Precipitation Wind Pressure Humidity
    00:00 0°C° 0 mm 1 mps 732 mmHg 93%
    01:00 0°C° 0 mm 1 mps 732 mmHg 93%
    02:00 0°C° 0 mm 1 mps 732 mmHg 93%
    03:00 -1°C° 0 mm 1 mps 732 mmHg 93%
    04:00 -3°C° 0 mm 2 mps 732 mmHg 93%
    05:00 -3°C° 0 mm 2 mps 732 mmHg 93%
    06:00 -3°C° 0 mm 2 mps 732 mmHg 93%
    07:00 -3°C° 0 mm 2 mps 732 mmHg 93%
    08:00 -2°C° 0 mm 2 mps 732 mmHg 90%
    09:00 -1°C° 0 mm 2 mps 732 mmHg 87%
    10:00 +2°C° 0 mm 2 mps 733 mmHg 85%
    11:00 +3°C° 0 mm 2 mps 732 mmHg 83%
    12:00 +3°C° 0 mm 2 mps 732 mmHg 81%
    13:00 +3°C° 0 mm 3 mps 732 mmHg 80%
    14:00 +4°C° 0 mm 2 mps 732 mmHg 82%
    15:00 +3°C° 0 mm 2 mps 732 mmHg 85%
    16:00 +2°C° 0 mm 2 mps 731 mmHg 88%
    17:00 +2°C° 0 mm 2 mps 731 mmHg 89%
    18:00 +1°C° 0 mm 2 mps 731 mmHg 90%
    19:00 -1°C° 0 mm 2 mps 731 mmHg 92%
    20:00 -1°C° 0 mm 2 mps 731 mmHg 91%
    21:00 -2°C° 0 mm 2 mps 731 mmHg 91%
    22:00 -2°C° 0 mm 2 mps 731 mmHg 90%
    23:00 -2°C° 0 mm 2 mps 731 mmHg 90%

    25 January, Thursday

    Time Temperature Precipitation Wind Pressure Humidity
    00:00 -2°C° 0 mm 2 mps 731 mmHg 90%
    01:00 -2°C° 0 mm 2 mps 731 mmHg 90%
    02:00 -2°C° 0 mm 2 mps 730 mmHg 89%
    03:00 -2°C° 0 mm 2 mps 730 mmHg 89%
    04:00 -2°C° 0 mm 2 mps 729 mmHg 89%
    05:00 -3°C° 0 mm 2 mps 729 mmHg 89%
    06:00 -3°C° 0 mm 2 mps 729 mmHg 89%
    07:00 -3°C° 0 mm 2 mps 729 mmHg 88%
    08:00 -2°C° 0 mm 2 mps 729 mmHg 85%
    09:00 -1°C° 0 mm 3 mps 729 mmHg 83%
    10:00 0°C° 0 mm 3 mps 729 mmHg 80%
    11:00 +1°C° 0 mm 3 mps 729 mmHg 78%
    12:00 +2°C° 0 mm 3 mps 728 mmHg 76%
    13:00 +3°C° 0 mm 3 mps 728 mmHg 75%
    14:00 +2°C° 0 mm 3 mps 727 mmHg 77%
    15:00 +3°C° 0 mm 2 mps 727 mmHg 80%
    16:00 +2°C° 0 mm 2 mps 727 mmHg 83%
    17:00 +1°C° 0 mm 2 mps 726 mmHg 85%
    18:00 -1°C° 0 mm 2 mps 726 mmHg 87%
    19:00 -2°C° 0 mm 3 mps 726 mmHg 88%
    20:00 -2°C° 0 mm 3 mps 726 mmHg 88%
    21:00 -2°C° 0 mm 3 mps 725 mmHg 88%
    22:00 -2°C° 0 mm 3 mps 725 mmHg 87%
    23:00 -2°C° 0 mm 3 mps 725 mmHg 87%
    Show more